{"data":{"norad_id":26931,"intl_designator":"2001-043C","name":"PCSAT (NO-44)","alt_names":[],"object_type":"PAYLOAD","status":"ACTIVE","operator":null,"country":"US","launch_date":"2001-09-30","launch_site_code":"KODAK","launch_vehicle":null,"mission":null,"orbit_class":"UNKNOWN","rcs_meters":0.1788,"size_class":null,"mass_kg":null,"dimensions":null,"purposes":["comms"],"wikipedia_slug":null,"has_3d_model":false,"image_url":null,"decayed_at":null,"tle_current":{"epoch":"2026-09-19T17:29:43.876320Z","epoch_age_seconds":77875,"freshness":"FRESH","line1":"1 26931U 01043C   26262.72898005  .00000035  00000+0  44010-4 0  9996","line2":"2 26931  67.0532 359.7370 0005829 272.9554  87.0881 14.31984890303980","mean_motion":14.3198489,"eccentricity":0.0005829,"inclination_deg":67.0532,"raan_deg":359.737,"arg_perigee_deg":272.9554,"mean_anomaly_deg":87.0881,"bstar":4.401e-5,"rev_number":30398,"period_min":100.55972029146,"perigee_km":780.92835303895,"apogee_km":789.27925917071,"semimajor_km":7163.2408061048,"source":"CELESTRAK","updated_at":"2026-09-20T09:00:45.228327Z"}}}